• In Hungary
  • List of Countries
  • For 7 days
  • Water Temperature
  • Satellite Maps
  • Weather Map
  • News
  • Weather Widgets
  • user-avatar
    Login

    Hourly Weather Domazlice

    Today, 19 September, Wednesday

    Time Temperature Precipitation Wind Pressure Humidity
    00:00 +19°C° 0.2 mm 1 mps 725 mmHg 86%
    01:00 +19°C° 0.2 mm 1 mps 725 mmHg 88%
    02:00 +18°C° 0.1 mm 1 mps 725 mmHg 88%
    03:00 +18°C° 0.1 mm 1 mps 726 mmHg 89%
    04:00 +18°C° 0.1 mm 1 mps 726 mmHg 90%
    05:00 +18°C° 0.2 mm 1 mps 726 mmHg 90%
    06:00 +18°C° 0.2 mm 1 mps 726 mmHg 90%
    07:00 +18°C° 0.2 mm 1 mps 726 mmHg 90%
    08:00 +20°C° 0.1 mm 1 mps 727 mmHg 82%
    09:00 +22°C° 0.1 mm 1 mps 727 mmHg 74%
    10:00 +24°C° 0.1 mm 1 mps 728 mmHg 67%
    11:00 +25°C° 0.1 mm 1 mps 728 mmHg 62%
    12:00 +26°C° 0.1 mm 2 mps 728 mmHg 58%
    13:00 +28°C° 0.1 mm 2 mps 727 mmHg 53%
    14:00 +27°C° 0.1 mm 1 mps 727 mmHg 53%
    15:00 +27°C° 0.1 mm 1 mps 727 mmHg 53%
    16:00 +27°C° 0.1 mm 1 mps 727 mmHg 54%
    17:00 +25°C° 0.1 mm 1 mps 727 mmHg 61%
    18:00 +23°C° 0.1 mm 1 mps 727 mmHg 68%
    19:00 +21°C° 0.1 mm 1 mps 727 mmHg 75%
    20:00 +20°C° 0.1 mm 1 mps 727 mmHg 77%
    21:00 +20°C° 0.1 mm 1 mps 727 mmHg 80%
    22:00 +19°C° 0.1 mm 1 mps 727 mmHg 82%
    23:00 +19°C° 0.1 mm 1 mps 727 mmHg 84%

    Tomorrow, 20 September, Thursday

    Time Temperature Precipitation Wind Pressure Humidity
    00:00 +18°C° 0.1 mm 1 mps 727 mmHg 86%
    01:00 +18°C° 0.1 mm 1 mps 727 mmHg 88%
    02:00 +18°C° 0 mm 1 mps 727 mmHg 90%
    03:00 +16°C° 0 mm 1 mps 727 mmHg 91%
    04:00 +16°C° 0 mm 1 mps 727 mmHg 92%
    05:00 +16°C° 0 mm 1 mps 727 mmHg 91%
    06:00 +18°C° 0 mm 1 mps 728 mmHg 90%
    07:00 +18°C° 0 mm 1 mps 728 mmHg 90%
    08:00 +20°C° 0 mm 1 mps 728 mmHg 82%
    09:00 +22°C° 0 mm 1 mps 728 mmHg 74%
    10:00 +24°C° 0 mm 1 mps 728 mmHg 67%
    11:00 +25°C° 0 mm 1 mps 728 mmHg 62%
    12:00 +26°C° 0 mm 1 mps 728 mmHg 57%
    13:00 +27°C° 0 mm 2 mps 727 mmHg 52%
    14:00 +27°C° 0 mm 2 mps 727 mmHg 53%
    15:00 +27°C° 0 mm 1 mps 727 mmHg 53%
    16:00 +27°C° 0 mm 1 mps 726 mmHg 54%
    17:00 +25°C° 0 mm 1 mps 726 mmHg 62%
    18:00 +23°C° 0 mm 1 mps 726 mmHg 70%
    19:00 +20°C° 0 mm 1 mps 725 mmHg 78%
    20:00 +20°C° 0 mm 1 mps 725 mmHg 80%
    21:00 +19°C° 0 mm 1 mps 725 mmHg 82%
    22:00 +19°C° 0 mm 1 mps 725 mmHg 84%
    23:00 +18°C° 0 mm 1 mps 725 mmHg 86%

    Day after tomorrow, 21 September, Friday

    Time Temperature Precipitation Wind Pressure Humidity
    00:00 +18°C° 0 mm 1 mps 725 mmHg 87%
    01:00 +16°C° 0 mm 1 mps 724 mmHg 88%
    02:00 +16°C° 0 mm 1 mps 724 mmHg 89%
    03:00 +16°C° 0 mm 1 mps 724 mmHg 89%
    04:00 +15°C° 0 mm 1 mps 723 mmHg 90%
    05:00 +15°C° 0 mm 1 mps 723 mmHg 89%
    06:00 +16°C° 0 mm 1 mps 723 mmHg 88%
    07:00 +16°C° 0 mm 1 mps 723 mmHg 88%
    08:00 +18°C° 0 mm 2 mps 723 mmHg 80%
    09:00 +20°C° 0 mm 2 mps 723 mmHg 72%
    10:00 +22°C° 0 mm 3 mps 723 mmHg 65%
    11:00 +25°C° 0 mm 3 mps 723 mmHg 60%
    12:00 +26°C° 0 mm 4 mps 723 mmHg 55%
    13:00 +27°C° 0 mm 4 mps 722 mmHg 50%
    14:00 +27°C° 0 mm 4 mps 722 mmHg 51%
    15:00 +27°C° 0 mm 4 mps 721 mmHg 52%
    16:00 +27°C° 0 mm 3 mps 721 mmHg 53%
    17:00 +25°C° 0 mm 3 mps 721 mmHg 59%
    18:00 +22°C° 0 mm 3 mps 721 mmHg 65%
    19:00 +20°C° 0 mm 3 mps 721 mmHg 71%
    20:00 +20°C° 0 mm 3 mps 721 mmHg 73%
    21:00 +19°C° 0 mm 3 mps 722 mmHg 74%
    22:00 +19°C° 0 mm 2 mps 722 mmHg 76%
    23:00 +18°C° 0.4 mm 3 mps 722 mmHg 80%

    22 September, Saturday

    Time Temperature Precipitation Wind Pressure Humidity
    00:00 +18°C° 0.4 mm 3 mps 723 mmHg 84%
    01:00 +17°C° 0.4 mm 4 mps 723 mmHg 88%
    02:00 +15°C° 0.8 mm 4 mps 724 mmHg 88%
    03:00 +14°C° 0.8 mm 4 mps 725 mmHg 89%
    04:00 +13°C° 0.8 mm 4 mps 726 mmHg 89%
    05:00 +12°C° 0.4 mm 4 mps 726 mmHg 89%
    06:00 +11°C° 0.4 mm 3 mps 727 mmHg 89%
    07:00 +10°C° 0.4 mm 2 mps 727 mmHg 90%
    08:00 +12°C° 0.2 mm 2 mps 728 mmHg 86%
    09:00 +12°C° 0.2 mm 2 mps 729 mmHg 82%
    10:00 +12°C° 0.2 mm 2 mps 729 mmHg 78%
    11:00 +13°C° 0 mm 2 mps 729 mmHg 72%
    12:00 +14°C° 0 mm 2 mps 730 mmHg 66%
    13:00 +14°C° 0 mm 3 mps 730 mmHg 60%
    14:00 +14°C° 0 mm 3 mps 730 mmHg 59%
    15:00 +14°C° 0 mm 3 mps 729 mmHg 58%
    16:00 +14°C° 0 mm 3 mps 729 mmHg 57%
    17:00 +13°C° 0.1 mm 3 mps 730 mmHg 64%
    18:00 +11°C° 0.1 mm 3 mps 730 mmHg 70%
    19:00 +10°C° 0.1 mm 2 mps 730 mmHg 77%
    20:00 +10°C° 0 mm 2 mps 730 mmHg 79%
    21:00 +9°C° 0 mm 2 mps 730 mmHg 82%
    22:00 +8°C° 0 mm 2 mps 731 mmHg 84%
    23:00 +8°C° 0 mm 2 mps 730 mmHg 86%

    23 September, Sunday

    Time Temperature Precipitation Wind Pressure Humidity
    00:00 +8°C° 0 mm 2 mps 730 mmHg 87%
    01:00 +8°C° 0 mm 1 mps 730 mmHg 88%
    02:00 +8°C° 0 mm 1 mps 730 mmHg 90%
    03:00 +8°C° 0 mm 1 mps 729 mmHg 91%
    04:00 +7°C° 0 mm 1 mps 729 mmHg 92%
    05:00 +8°C° 0 mm 1 mps 728 mmHg 91%
    06:00 +8°C° 0 mm 1 mps 728 mmHg 90%
    07:00 +8°C° 0 mm 1 mps 727 mmHg 89%
    08:00 +9°C° 0 mm 2 mps 727 mmHg 77%
    09:00 +12°C° 0 mm 3 mps 726 mmHg 66%
    10:00 +14°C° 0 mm 4 mps 725 mmHg 55%
    11:00 +15°C° 0 mm 4 mps 724 mmHg 52%
    12:00 +17°C° 0 mm 4 mps 723 mmHg 48%
    13:00 +18°C° 0 mm 4 mps 721 mmHg 45%
    14:00 +19°C° 0 mm 4 mps 720 mmHg 47%
    15:00 +19°C° 0 mm 4 mps 720 mmHg 49%
    16:00 +20°C° 0 mm 3 mps 719 mmHg 51%
    17:00 +18°C° 0 mm 3 mps 718 mmHg 57%
    18:00 +16°C° 0 mm 2 mps 717 mmHg 63%
    19:00 +15°C° 0 mm 1 mps 716 mmHg 70%
    20:00 +15°C° 0 mm 2 mps 715 mmHg 70%
    21:00 +15°C° 0 mm 2 mps 715 mmHg 71%
    22:00 +14°C° 0 mm 2 mps 714 mmHg 72%
    23:00 +13°C° 1.6 mm 3 mps 715 mmHg 78%

    24 September, Monday

    Time Temperature Precipitation Wind Pressure Humidity
    00:00 +12°C° 1.6 mm 4 mps 716 mmHg 84%
    01:00 +10°C° 1.6 mm 5 mps 716 mmHg 90%
    02:00 +10°C° 0.7 mm 5 mps 716 mmHg 90%
    03:00 +9°C° 0.7 mm 5 mps 716 mmHg 90%
    04:00 +9°C° 0.7 mm 5 mps 716 mmHg 89%
    05:00 +8°C° 0.5 mm 5 mps 716 mmHg 88%
    06:00 +8°C° 0.5 mm 5 mps 716 mmHg 87%
    07:00 +8°C° 0.5 mm 5 mps 716 mmHg 87%
    08:00 +8°C° 0.2 mm 6 mps 715 mmHg 85%
    09:00 +9°C° 0.2 mm 7 mps 715 mmHg 83%
    10:00 +9°C° 0.2 mm 8 mps 715 mmHg 81%
    11:00 +10°C° 0.2 mm 8 mps 715 mmHg 82%
    12:00 +10°C° 0.2 mm 9 mps 715 mmHg 83%
    13:00 +10°C° 0.2 mm 9 mps 716 mmHg 84%
    14:00 +10°C° 0.3 mm 9 mps 717 mmHg 84%
    15:00 +10°C° 0.3 mm 8 mps 718 mmHg 85%
    16:00 +10°C° 0.3 mm 8 mps 719 mmHg 85%
    17:00 +9°C° 0.1 mm 8 mps 720 mmHg 84%
    18:00 +8°C° 0.1 mm 7 mps 722 mmHg 83%
    19:00 +8°C° 0.1 mm 7 mps 723 mmHg 82%
    20:00 +7°C° 0.1 mm 6 mps 724 mmHg 82%
    21:00 +7°C° 0.1 mm 6 mps 725 mmHg 82%
    22:00 +5°C° 0.1 mm 6 mps 726 mmHg 82%
    23:00 +5°C° 0 mm 6 mps 726 mmHg 83%
    Show more